Location: Castillon
(43.0896°N, 0.2156°E)
Time: 20:26:07
(UTC+00:00)

SPOT 1/Viking Rocket - Pass Details

Date: 16 June 2021
Orbit: 778 x 793 km, 98.4° (Epoch: 22 July)

Event Time Altitude Azimuth Distance (km) Brightness Sun altitude
Exits shadow 21:04:59 13° 168° (SSE) 2,117 5.3 -12.3°
Maximum altitude 21:09:35 83° 256° (WSW) 789 3.6 -12.8°
Drops below altitude 10° 21:14:46 10° 345° (NNW) 2,338 7.1 -13.4°
Sets 21:17:05 0° 346° (NNW) 3,271 8.0 -13.7°
